Regional Weather Roundup
Issued by NWS Charleston, SC

Current Version | Previous Version | Text Only | Print | Product List | Glossary Off
Versions: 1 2 3 4 5 6 7 8 9 10 11 12 13 14 15 16 17 18 19 20 21 22 23 24 25 26 27 28 29 30 31 32 33 34 35 36 37 38 39 40 41 42 43 44 45 46 47 48 49 50
411 ASUS42 KCHS 241427 RWRCHS REGIONAL WEATHER ROUNDUP NATIONAL WEATHER SERVICE CHARLESTON SC 900 AM EST FRI NOV 24 2017 NOTE: "FAIR" INDICATES FEW OR NO CLOUDS BELOW 12,000 FEET WITH NO SIGNIFICANT WEATHER AND/OR OBSTRUCTIONS TO VISIBILITY. NOT ALL STATIONS ARE QUALITY CONTROLLED. USE DATA WITH CAUTION... ESPECIALLY DEWPOINT OBSERVATIONS. SCZ027-030-031-034>040-042>050-241500- ...SOUTHEAST SOUTH CAROLINA... CITY SKY/WX TMP DP RH WIND PRES REMARKS N CHARLESTON MOSUNNY 45 37 73 N8 30.01R WATERFRONT PRK N/A 47 39 74 N12 29.85R JOHNS ISLAND FAIR 50 37 62 N12 30.00R PINOPOLIS N/A 43 39 87 NE13 29.96R MONCKS CORNER FAIR 45 34 65 N8 30.03R SUMMERVILLE FAIR 43 37 81 N9 30.03S BEAUFORT MCAS MOSUNNY 47 39 74 N14 30.01R BEAUFORT ARPT FAIR 46 36 66 N14 30.00R HILTON HEAD IS NOT AVBL WALTERBORO SUNNY 46 36 66 N7 30.03S ALLENDALE FAIR 46 37 71 VRB7 30.03S ...SOUTHERN MIDLANDS AND PEE DEE... CITY SKY/WX TMP DP RH WIND PRES REMARKS GEORGETOWN FAIR 43 36 75 NE9G16 30.02S KINGSTREE FAIR 43 32 65 N5 30.05S ORANGEBURG SUNNY 44 35 70 NE8 30.05S BARNWELL N/A 46 36 66 NE9 30.04F AIKEN FAIR 43 34 70 NE8 30.07S MANNING FAIR 45 36 70 MISG 30.05S COLUMBIA MOSUNNY 43 35 73 CALM 30.06S SUMTER SUNNY 42 36 77 NE9 30.03S FLORENCE SUNNY 41 34 76 NE10 30.07R MYRTLE BEACH CLOUDY 45 34 65 N12 30.03F N MYRTLE BEACH MOSUNNY 45 34 65 NE12 30.01F $$ GAZ063-065-086>088-099>101-113>116-118-119-134>141-150-241500- ...SOUTHEAST GEORGIA... CITY SKY/WX TMP DP RH WIND PRES REMARKS SAVANNAH ARPT CLOUDY 46 38 73 N10 30.01R HUNTER AAF MOSUNNY 48 37 66 N7 29.97S FORT STEWART PTSUNNY 46 38 71 N7 29.98S STATESBORO SUNNY 48 34 57 N7 30.02F SYLVANIA SUNNY 48 37 65 NE7 30.04S CLAXTON FAIR 50 38 62 N5 30.02S ...CSRA...CENTRAL AND FAR SOUTHEAST GEORGIA... CITY SKY/WX TMP DP RH WIND PRES REMARKS THOMSON SUNNY 42 37 82 CALM 30.10S AUGUSTA-BUSH SUNNY 42 38 85 NW6 30.05S AUGUSTA-DANIEL SUNNY 44 35 70 N3 30.05S SWAINSBORO FAIR 48 34 57 NE7 30.04S VIDALIA SUNNY 50 37 62 NE7 30.02F EASTMAN FAIR 51 27 39 NE5 30.06S HAZLEHURST FAIR 49 32 51 NE6 30.01S ALMA SUNNY 49 38 65 VRB5 30.01R WAYCROSS SUNNY 51 38 62 NE10 30.00S JESUP FAIR 52 37 58 NE6 30.00S BAXLEY FAIR 48 34 57 NE7 30.01S BRUNSWICK MOSUNNY 52 41 66 N7 29.98S SAINT SIMONS MOSUNNY 52 46 80 N10 29.95F $$ SCZ027-028-034-036>038-045-046-048>050-GAZ119-141-241500- ...LAKE AND SUPPLEMENTAL COASTAL OBSERVATIONS... STATION/POSITION TIME TEMP WIND PRES WAVE SWELL AIR SEA DIR/SP/G HT/PER HT/PER/DIR (UTC) (F) (DEG/KT/KT) (MB) (FT/S) (FT/S/D) WINYAH BAY 1330 44 20/ 7 1016.0S LAKE MURRAY 1420 44 40/ 2/ 4 1016.9 ACE BASIN NERRS 1345 47 360/ 3 1016.0R FORT PULASKI 1400 51 61 20/ 9/ 13 1015.7 SAPELO ISLAND 1400 53 10/ 13 1015.0 $$ ANZ835-935-AMZ111-154-330-350-352-354-370-450-454-472-241500- ...C-MAN AND BUOY OBSERVATIONS... STATION/POSITION TIME TEMP WIND PRES WAVE SWELL AIR SEA DIR/SP/G HT/PER HT/PER/DIR (UTC) (F) (DEG/KT/KT) (MB) (FT/S) (FT/S/D) BUOY 41004 1410 62 74 30/ 23/ 29 1013.7 BUOY 41008 1350 58 66 30/ 21/ 25 1013.3R 6/ 5 3/110/ 9 FOLLY BEACH CMAN 1400 51 10/ 13/ 17 1016.1R CAPERS NEARSHORE 1408 48 60 20/ 17/ 23 1014.8R FRIPP NEARSHORE 1408 51 61 20/ 12/ 27 1014.8R STATION/POSITION TIME TEMP WIND PRES WAVE SWELL AIR SEA DIR/SP/G HT/PER HT/PER/DIR (UTC) (F) (DEG/KT/KT) (MB) (FT/S) (FT/S/D) 5E ST. MARYS GA 1400 66 N/A 7/ 6 FRYING PAN BUOY 1410 60 72 20/ 23/ 29 1014.4 BUOY 41025 1410 61 72 30/ 21/ 25 1016.3 CAPE LOOKOUT NC 1400 20/ 14/ 18 1016.8S BUOY 41002 1350 73 77 120/ 14/ 19 1010.0F 9/ 9 7/ 40/ 9 BUOY 41010 NOT AVBL ST AUGUSTINE FL 1400 60 67 360/ 27/ 30 1011.6S $$

USA.gov is the U.S. government's official web portal to all federal, state and local government web resources and services.